Wind_Speed
9 9 10 10 10 10 10 9 9 10 10 9 9 9 9 9 9 11 12 13 13 14 14 15 16 17 18 19 21 21 22 23 24 25 26 28 29 30 30 31 30 31 31 30
10 10 10 11 11 11 11 11 10 10 9 9 10 10 10 10 11 12 13 14 15 15 16 17 18 19 20 22 23 24 24 25 26 27 29 30 30 32 32 32 32 32 32 32
12 12 12 11 11 12 11 11 11 10 10 10 11 11 11 12 13 13 14 15 16 17 18 19 20 22 23 24 25 26 27 28 29 30 31 32 32 33 34 34 34 34 34 33
14 14 14 11 13 13 12 12 12 11 11 11 12 12 13 14 15 16 17 18 19 20 21 22 23 25 26 26 27 28 29 30 32 33 34 34 35 35 36 35 35 35 35 35
16 16 14 13 13 14 14 13 13 12 12 13 13 14 14 16 17 18 19 20 21 22 23 25 26 27 28 29 29 30 31 32 33 34 35 36 37 37 37 36 36 36 37 38
17 17 15 13 14 15 15 14 13 14 14 15 15 16 17 18 19 20 21 22 24 25 26 27 28 29 30 31 32 32 33 34 35 36 37 38 38 38 37 38 38 39 40 41
18 18 16 15 16 16 17 16 16 17 17 17 18 19 19 21 22 23 24 25 26 27 28 29 30 30 31 33 34 35 35 36 37 38 39 39 39 39 39 40 41 42 42 42
20 20 18 18 18 19 19 19 19 19 20 20 21 21 22 23 24 25 26 28 29 29 30 31 32 33 33 34 35 36 37 38 39 40 41 41 41 41 41 42 43 43 43 43
22 22 21 21 21 21 21 22 22 23 23 24 24 25 26 26 27 28 29 30 31 31 32 33 34 35 36 36 37 38 39 40 41 41 42 43 43 43 43 43 44 44 44 44
25 25 24 25 25 25 25 25 26 26 27 27 28 29 29 30 30 31 31 32 33 34 35 35 36 37 38 38 39 40 42 42 43 43 44 44 45 45 45 45 45 46 46 46
28 27 28 28 28 29 29 29 30 30 31 31 31 32 32 33 33 34 34 35 36 36 37 38 39 39 40 41 41 42 43 43 44 45 45 46 47 47 47 47 47 48 48 47
30 30 31 31 31 31 31 32 32 33 33 34 34 34 35 35 35 35 36 37 38 39 40 41 41 42 42 42 43 44 44 45 46 47 47 48 48 48 49 49 49 50 50 49
32 32 33 33 33 33 34 34 35 35 35 35 35 36 36 37 37 38 39 39 40 41 42 42 43 43 44 44 45 46 47 47 48 49 49 50 50 50 50 50 50 50 50 50
34 34 34 35 35 36 36 36 36 36 37 37 37 37 38 38 39 40 40 41 42 42 43 44 44 45 46 46 47 47 48 49 50 50 51 51 51 51 51 50 50 50 51 51
35 35 35 35 35 35 36 37 37 37 38 38 39 39 40 41 41 42 42 43 43 43 44 44 45 45 46 47 47 48 49 50 51 51 51 52 52 52 52 52 52 52 51 51
35 35 35 36 36 37 37 38 38 38 38 39 40 41 42 42 43 43 44 44 44 44 45 45 46 46 47 48 49 50 51 51 52 52 52 52 53 53 53 53 53 52 52 52
35 35 36 37 37 38 38 39 39 40 40 41 41 43 43 44 44 45 45 46 46 46 46 46 47 48 49 50 50 51 52 52 53 53 53 54 54 55 55 54 53 53 53 53
36 37 37 38 38 39 39 40 41 41 42 42 43 44 44 45 46 46 47 47 47 47 48 48 49 50 51 52 52 53 54 54 54 55 55 55 56 56 55 55 54 54 53 52
38 39 39 39 40 40 41 41 42 42 43 44 44 45 46 47 47 48 48 48 48 49 49 50 51 51 52 53 54 55 55 56 56 56 57 57 57 56 56 56 55 54 53 52
40 40 41 41 42 42 42 42 43 43 44 45 45 46 47 47 48 48 48 49 49 50 51 52 53 53 54 55 56 56 57 57 58 58 58 58 57 57 57 56 55 54 52 51
42 42 42 42 43 43 44 44 45 45 46 46 47 47 48 48 49 50 50 51 51 52 53 54 55 55 55 56 57 58 58 59 60 60 59 58 57 57 56 56 54 53 52 50
44 44 44 44 44 45 45 46 46 47 47 48 48 49 49 50 50 51 52 53 53 54 55 55 56 56 57 58 58 59 60 60 61 60 58 58 57 56 56 55 53 52 51 49
45 46 46 47 47 47 47 47 48 49 49 49 50 51 52 53 53 53 53 54 55 55 56 56 57 58 59 59 60 60 60 60 60 59 58 57 56 55 55 54 52 51 50 48
47 47 47 47 47 48 48 48 49 50 51 52 53 53 54 55 55 55 55 55 56 56 57 57 58 59 59 59 60 60 59 59 59 58 57 56 55 54 54 53 51 50 48 46
49 49 49 50 50 50 50 51 51 52 52 53 54 55 55 56 56 56 56 56 56 57 57 58 58 58 58 59 59 59 59 59 58 57 56 55 54 53 52 51 48 47 45 43
51 51 51 52 52 53 54 54 54 54 54 54 54 55 55 55 56 56 56 56 56 57 57 57 57 57 58 58 58 58 57 56 55 55 54 53 52 51 49 48 46 44 42 41
54 54 55 55 55 55 56 56 56 56 56 56 56 56 55 55 55 55 55 55 56 56 56 57 57 57 57 57 56 55 55 55 54 53 53 51 49 48 46 46 45 43 41 39
Wind_Direction
215 219 219 219 223 231 236 240 246 252 258 261 262 265 268 269 271 273 275 276 277 280 283 286 288 291 295 298 300 302 304 305 306 308 310 312 313 314 314 313 312 312 311 310
233 233 233 230 231 235 239 243 249 253 256 258 263 266 270 272 275 275 276 278 280 282 284 287 290 293 296 298 299 301 302 303 305 307 309 310 311 312 312 311 311 310 310 309
240 242 243 240 244 247 251 254 258 260 262 265 267 268 271 274 276 277 280 282 284 285 286 289 291 293 295 297 298 299 301 302 303 305 307 309 311 311 311 309 308 309 309 308
245 246 247 243 245 249 252 256 260 261 261 264 268 270 272 275 277 280 284 285 287 287 288 290 291 293 295 296 297 299 301 303 304 305 306 308 310 310 310 308 307 307 307 308
250 250 248 245 248 251 252 252 257 261 263 267 270 273 276 279 281 284 286 288 289 290 290 291 292 294 295 296 298 300 302 303 304 305 306 307 308 309 308 306 305 305 306 306
252 252 253 250 252 255 257 258 260 264 268 271 275 277 280 283 284 285 286 289 291 292 292 292 293 294 296 297 299 300 301 302 304 305 306 307 307 307 306 306 305 305 305 306
254 255 255 255 255 258 261 264 264 267 270 273 276 278 280 283 284 285 286 289 290 292 292 292 293 294 296 297 298 300 301 301 303 304 305 306 306 306 305 305 306 306 305 306
256 258 259 259 260 261 263 266 268 270 273 275 277 279 281 284 286 287 288 289 291 292 293 294 294 294 295 296 297 299 300 301 302 303 304 305 305 305 304 305 305 305 305 304
257 258 260 262 263 264 266 268 271 274 276 277 279 281 283 285 286 287 288 290 291 292 293 294 295 294 295 296 297 298 299 300 301 302 303 304 305 304 304 304 304 305 304 304
260 261 261 262 264 267 268 270 272 273 276 278 280 282 283 284 285 287 288 290 291 292 293 294 294 294 295 296 296 297 299 300 300 301 302 303 303 303 303 303 304 304 303 303
262 263 263 264 266 268 270 271 272 274 276 279 280 281 282 283 285 287 288 289 290 291 291 292 293 294 295 296 296 297 298 299 300 300 301 302 303 303 302 303 303 304 303 302
263 264 265 267 269 270 271 272 274 276 278 279 280 280 281 282 284 286 287 288 288 289 290 292 293 294 295 295 295 296 298 298 300 300 300 301 302 302 302 302 303 303 302 301
263 264 266 267 269 270 271 272 274 275 277 278 279 280 281 282 284 285 286 286 287 289 290 291 292 293 294 295 296 297 298 299 299 300 300 301 301 302 301 301 302 302 302 300
263 265 266 267 268 270 271 272 273 275 276 277 278 279 280 282 283 284 285 286 287 288 289 290 292 293 294 295 296 297 299 299 300 300 301 301 301 301 302 301 301 301 301 300
264 265 266 267 269 270 272 273 274 275 277 278 279 280 281 282 284 284 285 286 287 288 289 290 291 293 294 295 297 298 299 300 300 301 300 301 301 302 302 302 302 302 301 300
265 266 267 268 268 270 271 273 274 275 276 278 279 281 282 283 284 285 285 286 287 288 289 290 291 292 294 295 297 298 299 300 300 300 300 300 301 301 302 302 302 302 301 300
267 268 268 269 270 271 272 273 274 275 277 278 280 281 283 283 284 285 286 286 287 288 289 291 292 293 294 296 297 298 299 300 300 300 300 300 300 301 301 301 301 301 301 300
268 269 270 271 272 273 273 274 275 276 277 279 280 281 282 283 284 285 286 287 287 288 289 290 291 293 294 296 297 298 299 300 300 301 300 300 300 300 300 300 300 301 300 299
269 270 271 272 272 273 275 276 277 278 279 280 282 283 284 284 284 285 286 286 287 287 288 289 291 293 294 295 297 297 298 299 300 301 300 300 300 299 299 299 299 300 299 297
270 271 272 273 274 275 276 277 277 278 279 281 282 283 284 284 284 285 285 286 287 287 288 290 291 293 294 295 296 297 298 299 300 300 300 300 299 299 298 298 298 298 297 296
270 271 272 274 275 276 277 277 278 279 280 281 282 284 285 285 285 286 286 286 287 287 289 290 291 292 293 294 295 296 297 298 300 300 300 299 298 298 297 297 297 297 296 295
270 271 272 273 274 276 277 278 278 279 281 282 283 284 285 286 286 286 287 287 288 288 289 290 290 291 292 293 294 295 296 298 299 299 298 298 297 297 298 297 296 296 294 293
270 271 271 272 273 275 277 278 279 280 281 282 283 284 285 286 286 287 287 287 288 288 289 290 290 290 291 293 294 295 296 297 298 299 298 297 297 297 297 296 296 295 294 292
270 270 271 273 274 275 276 277 278 279 280 282 283 284 285 286 287 287 287 287 288 288 289 289 290 291 292 293 294 295 296 296 297 297 297 297 297 296 296 296 295 294 293 291
272 272 273 274 275 276 277 277 278 279 281 282 283 285 285 286 286 287 287 288 288 289 289 290 291 291 292 293 294 295 295 296 296 297 296 296 296 295 295 295 294 294 292 290
273 273 273 274 275 276 277 278 278 279 281 282 283 284 284 285 286 286 286 287 288 289 290 291 292 293 294 294 295 295 296 296 296 296 296 297 296 295 295 294 293 293 292 290
274 275 275 276 277 278 278 279 280 280 280 281 282 283 284 285 285 286 287 287 288 289 290 291 292 293 294 294 295 295 294 294 294 295 295 296 295 293 293 292 292 292 291 289
Height
5841 5841 5842 5842 5843 5843 5844 5844 5845 5845 5845 5846 5846 5846 5846 5845 5845 5845 5844 5844 5844 5843 5843 5842 5840 5839 5837 5836 5834 5831 5829 5826 5823 5820 5817 5813 5809 5805 5801 5796 5792 5787 5783 5779
5838 5839 5839 5840 5841 5841 5841 5842 5842 5842 5843 5843 5843 5842 5842 5842 5842 5841 5841 5840 5840 5839 5838 5837 5836 5834 5832 5830 5828 5825 5823 5820 5817 5814 5810 5806 5802 5798 5793 5789 5784 5780 5776 5771
5836 5836 5836 5838 5838 5838 5838 5839 5839 5839 5840 5839 5839 5839 5839 5839 5838 5838 5837 5836 5835 5834 5833 5832 5831 5829 5827 5824 5822 5819 5816 5813 5809 5806 5803 5799 5794 5790 5785 5781 5776 5772 5767 5763
5833 5834 5834 5837 5835 5835 5835 5836 5836 5836 5836 5836 5836 5836 5835 5835 5834 5833 5832 5831 5830 5829 5828 5826 5824 5822 5820 5817 5814 5811 5808 5805 5802 5798 5794 5790 5786 5781 5777 5772 5768 5764 5759 5755
5829 5829 5830 5832 5832 5831 5832 5832 5832 5832 5832 5832 5832 5831 5831 5830 5829 5828 5827 5826 5824 5823 5822 5820 5817 5815 5812 5809 5806 5803 5800 5796 5793 5789 5785 5781 5777 5772 5768 5764 5759 5755 5750 5746
5825 5824 5826 5829 5828 5827 5828 5828 5829 5828 5828 5828 5827 5827 5827 5825 5824 5823 5821 5820 5818 5817 5814 5812 5810 5807 5804 5801 5798 5795 5791 5788 5784 5780 5776 5772 5767 5763 5758 5754 5750 5745 5740 5735
5819 5819 5821 5823 5822 5822 5824 5825 5824 5823 5823 5823 5822 5822 5821 5820 5818 5816 5815 5813 5811 5809 5807 5804 5801 5799 5796 5793 5790 5786 5782 5779 5775 5771 5766 5762 5757 5753 5748 5744 5740 5735 5730 5724
5814 5814 5818 5817 5817 5817 5818 5817 5817 5817 5817 5817 5816 5815 5814 5813 5811 5809 5808 5806 5803 5801 5799 5796 5793 5790 5787 5784 5781 5777 5773 5769 5765 5761 5756 5752 5747 5742 5737 5733 5728 5723 5718 5713
5809 5811 5811 5810 5810 5811 5811 5811 5810 5810 5810 5809 5808 5807 5806 5805 5803 5801 5799 5797 5795 5792 5789 5786 5784 5781 5778 5774 5771 5767 5763 5759 5755 5751 5746 5741 5736 5731 5726 5721 5717 5712 5707 5702
5802 5803 5803 5803 5803 5803 5803 5803 5803 5802 5802 5801 5800 5799 5798 5796 5795 5793 5790 5788 5785 5783 5780 5777 5774 5771 5767 5764 5760 5757 5753 5748 5744 5740 5735 5730 5725 5719 5714 5709 5704 5700 5694 5690
5793 5794 5794 5795 5795 5795 5795 5794 5794 5793 5793 5792 5791 5790 5788 5787 5785 5783 5780 5778 5775 5773 5770 5767 5763 5760 5757 5753 5750 5746 5741 5737 5732 5728 5723 5718 5713 5707 5702 5697 5691 5686 5682 5677
5785 5785 5785 5786 5786 5786 5786 5785 5785 5784 5783 5782 5781 5780 5778 5776 5774 5772 5770 5767 5765 5762 5759 5756 5752 5749 5746 5742 5738 5734 5729 5725 5720 5715 5710 5705 5700 5695 5689 5684 5678 5672 5667 5662
5776 5776 5776 5776 5776 5776 5776 5775 5774 5774 5773 5772 5771 5769 5767 5766 5764 5761 5759 5756 5753 5750 5747 5744 5741 5737 5733 5730 5725 5721 5717 5712 5707 5702 5697 5692 5687 5682 5677 5672 5665 5659 5654 5648
5766 5766 5765 5765 5765 5765 5765 5764 5764 5763 5762 5761 5759 5758 5756 5754 5752 5749 5747 5744 5741 5738 5735 5732 5728 5725 5721 5717 5712 5708 5703 5698 5694 5689 5683 5678 5672 5667 5662 5657 5653 5647 5641 5635
5755 5755 5755 5755 5755 5754 5754 5753 5752 5752 5751 5749 5748 5746 5744 5742 5740 5737 5735 5732 5729 5726 5723 5719 5716 5712 5707 5703 5699 5694 5689 5684 5679 5674 5669 5663 5658 5652 5647 5642 5637 5632 5627 5621
5744 5744 5744 5744 5744 5743 5742 5742 5741 5740 5739 5737 5736 5734 5732 5730 5727 5725 5722 5719 5716 5714 5710 5706 5703 5699 5694 5690 5685 5681 5675 5670 5665 5659 5654 5649 5643 5638 5632 5626 5621 5616 5611 5605
5733 5733 5733 5733 5732 5732 5731 5730 5729 5728 5727 5725 5724 5721 5719 5717 5715 5712 5709 5706 5703 5700 5696 5693 5689 5685 5680 5676 5671 5667 5661 5656 5650 5645 5639 5633 5628 5622 5616 5611 5605 5600 5595 5589
5722 5722 5721 5721 5721 5720 5719 5718 5717 5716 5714 5713 5711 5708 5706 5704 5701 5698 5695 5692 5689 5686 5683 5679 5675 5671 5666 5662 5657 5652 5647 5641 5636 5630 5624 5618 5612 5606 5600 5595 5589 5583 5578 5573
5710 5710 5710 5709 5708 5707 5707 5706 5704 5703 5701 5699 5697 5695 5692 5690 5687 5684 5681 5678 5675 5672 5668 5664 5660 5656 5651 5647 5642 5637 5632 5626 5620 5614 5608 5602 5596 5590 5584 5578 5573 5568 5562 5558
5698 5698 5697 5696 5695 5695 5694 5692 5691 5689 5687 5685 5683 5681 5678 5676 5672 5669 5666 5663 5660 5656 5653 5649 5645 5640 5636 5631 5626 5621 5616 5610 5604 5599 5592 5586 5580 5574 5568 5562 5557 5551 5547 5542
5685 5684 5684 5683 5682 5681 5680 5678 5677 5675 5673 5671 5669 5666 5664 5661 5657 5654 5651 5648 5645 5640 5637 5633 5629 5625 5620 5615 5610 5605 5599 5594 5588 5582 5576 5570 5564 5558 5552 5547 5541 5536 5531 5527
5671 5670 5670 5669 5668 5667 5666 5664 5662 5661 5659 5656 5654 5651 5648 5645 5642 5638 5635 5631 5628 5624 5620 5616 5612 5608 5603 5598 5593 5588 5583 5577 5571 5565 5559 5553 5547 5542 5536 5531 5526 5521 5516 5511
5656 5655 5655 5654 5653 5652 5651 5649 5647 5645 5643 5641 5638 5635 5632 5629 5626 5623 5620 5616 5611 5608 5604 5600 5595 5591 5586 5581 5576 5571 5565 5560 5554 5548 5542 5537 5531 5525 5520 5515 5510 5505 5500 5496
5640 5640 5639 5638 5637 5636 5635 5633 5631 5629 5627 5624 5622 5619 5615 5612 5609 5605 5602 5598 5594 5590 5586 5582 5578 5573 5568 5563 5558 5553 5548 5542 5537 5532 5526 5520 5515 5509 5504 5499 5494 5490 5485 5481
5624 5623 5623 5622 5620 5619 5618 5616 5614 5612 5610 5607 5604 5601 5598 5594 5591 5588 5584 5581 5577 5573 5569 5565 5560 5555 5551 5546 5541 5536 5531 5525 5520 5514 5509 5504 5499 5494 5489 5483 5479 5475 5471 5467
5607 5606 5605 5604 5603 5602 5600 5599 5597 5595 5592 5590 5587 5584 5580 5577 5573 5570 5567 5563 5559 5556 5552 5547 5543 5538 5533 5528 5523 5518 5513 5508 5503 5498 5493 5488 5483 5478 5473 5469 5464 5460 5457 5453
5590 5589 5588 5587 5586 5584 5582 5580 5578 5576 5574 5572 5569 5566 5563 5559 5556 5553 5549 5546 5542 5538 5534 5530 5526 5521 5516 5511 5506 5501 5496 5491 5487 5482 5477 5472 5467 5463 5459 5455 5451 5447 5443 5440